Tracking 19638 objects as of 20-May-2019
HD Live streaming from Space Station
objects crossing your sky now

DUCHIFAT-1

Track DUCHIFAT-1 now!
10-day predictions
DUCHIFAT-1 is classified as:


NORAD ID: 40021
Int'l Code: 2014-033M
Perigee: 593.6 km
Apogee: 612.7 km
Inclination: 97.9 °
Period: 96.6 minutes
Semi major axis: 6974 km
RCS: Unknown
Launch date: June 19, 2014
Source: Israel (ISRA)
Launch site: Orenburg, Russia (OREN)

Uplink (MHz): 435.220
Downlink (MHz): 145.825/145.980
Beacon (MHz): 145.980
Mode: 1200bps BPSK CW
Call sign: 4X4HSL
Status: Active

aabbcc
Your satellite tracking list
Your tracking list is empty




NASA's NSSDC Master Catalog

Two Line Element Set (TLE):
1 40021U 14033M   19140.74631726  .00000409  00000-0  47567-4 0  9995
2 40021  97.9239  65.2450 0013704 140.2042 220.0184 14.90606279267239
Source of the keplerian elements: Caltech